[[{"header":{"parameterUnit":"m.s-1","parameterCategory":1,"la1":30.2991,"la2":30.254,"lo1":-89.0895,"lo2":-89.0444,"dy":0.0017,"dx":0.0017,"nx":28,"ny":28,"refTime":"2023-04-25T21:00:00:Z","depth":0,"parameterNumber":2,"parameterNumberName":"U-component_of_WINDS"},"data":[0,0,0,0,0,0,0,0,0,0,0,0,0,0,0,0,0,0,0,0,0,0,0,0,0,0,0,0,0,0,0,0,0,0,0,0,0,0,0,0,0,0,0,0,0,0,0,0,0,0,0,0,0,0,0,0,0,0,-0.9802,-0.9802,0,-0.9797,-0.9797,-0.9797,-0.9747,-0.9745,-0.9744,-0.9743,-0.974,-0.9741,-0.9742,0,0,0,0,0,0,0,0,0,0,0,0,0,-0.9772,-0.9772,-0.9802,-0.9802,-0.9802,-0.9797,-0.9797,-0.9797,-0.9747,-0.9745,-0.9744,-0.9742,-0.9739,-0.9741,-0.9742,0,0,0,0,0,0,0,0,0,0,0,0,0,-0.9778,-0.9773,-0.9802,-0.9776,-0.9774,-0.9797,-0.9797,-0.9797,-0.9747,-0.9745,-0.9743,-0.9742,-0.9739,-0.9741,-0.9742,-0.979,0,0,-0.9747,-0.9748,0,0,0,0,0,0,0,0,-0.9777,-0.9779,-0.978,-0.9778,-0.9776,-0.977,-0.9785,-0.9795,-0.9748,-0.9758,-0.9743,-0.9741,-0.9752,-0.9752,-0.9755,-0.979,-0.979,-0.9747,-0.9748,-0.9749,-0.9749,0,0,0,0,0,0,0,-0.9777,-0.9779,-0.98,-0.978,-0.9778,-0.9766,-0.9765,-0.9786,-0.9765,-0.9756,-0.9753,-0.9753,-0.975,-0.9754,-0.9755,-0.979,-0.9747,-0.9749,-0.975,-0.975,-0.9864,-0.9866,0,0,0,0,0,0,-0.978,-0.9779,-0.98,-0.98,-0.9772,-0.9768,-0.9767,-0.9774,-0.9765,-0.9762,-0.9754,-0.975,-0.9752,-0.9753,-0.9755,-0.981,-0.9749,-0.9751,-0.9751,-0.9862,-0.9864,-0.9866,0,0,0,0,0,0,-0.9779,-0.9782,-0.98,-0.9788,-0.979,-0.9771,-0.9779,-0.9775,-0.9779,-0.9763,-0.9759,-0.9762,-0.9751,-0.9752,-0.9782,-0.9809,-0.9751,-0.9753,-0.9859,-0.9863,-0.9865,-0.9922,0,0,0,0,0,0,-0.9779,-0.9782,-0.9799,-0.9789,-0.9791,-0.9827,-0.9781,-0.9776,-0.9781,-0.9776,-0.9769,-0.9767,-0.9749,-0.9779,-0.9783,-0.9811,-0.9754,-0.9857,-0.9861,-0.9864,-0.9918,-0.9927,-0.9934,0,0,0,0,0,-0.9778,-0.9816,-0.9801,-0.9803,-0.9812,-0.9828,-0.9829,-0.9808,-0.9784,-0.9801,-0.9792,-0.9767,-0.9806,-0.9783,-0.9787,-0.9815,-0.9855,-0.986,-0.9864,-0.9914,-0.9925,-0.9934,0,0,0,0,0,0,-0.9831,-0.9814,-0.9797,-0.9833,-0.9832,-0.982,-0.9842,-0.982,-0.9828,-0.9822,-0.9796,-0.9795,-0.9829,-0.9825,-0.9799,-0.9861,-0.9826,-0.9832,-0.9863,-0.9873,-0.9881,-0.9882,-0.9755,0,0,0,0,0,-0.9847,-0.9861,-0.9846,-0.9879,-0.988,-0.9861,-0.9867,-0.9851,-0.985,-0.985,-0.9842,-0.9843,-0.9855,-0.9864,-0.9874,-0.9917,-0.9915,-0.9938,-0.9947,-0.9954,-0.9959,-0.9982,-0.9992,-0.9882,-0.9882,-0.9881,0,0,-0.988,-0.9872,-0.9883,-0.989,-0.9887,-0.9904,-0.9861,-0.988,-0.9892,-0.9853,-0.988,-0.9874,-0.9873,-0.991,-0.9925,-0.9907,-0.9989,-0.996,-0.9965,-0.9967,-0.9988,-0.9998,-1.0008,-0.9885,-0.9884,-0.9884,0,0,-0.9948,-0.9944,-0.9971,-0.997,-0.9967,-0.9954,-0.9961,-0.9952,-0.9946,-0.9973,-0.9944,-0.9959,-0.998,-0.9981,-0.9984,-1.0054,-1.0031,-1.0058,-1.0102,-1.0125,-1.0133,-1.0141,-1.0167,-1.0176,-1.0063,-1.0063,-1.0063,0,-0.999,-1.0012,-0.9988,-1.0009,-1.0013,-0.9978,-1.0006,-1.0006,-1.0007,-1.0011,-0.9991,-1.0018,-1.0015,-1.0051,-1.0068,-1.0072,-1.0079,-1.0059,-1.0134,-1.0141,-1.0148,-1.0172,-1.0182,-1.0067,-1.0066,-1.0066,-1.0066,0,-1.0064,-1.008,-1.0103,-1.0104,-1.0111,-1.0135,-1.0116,-1.0125,-1.0109,-1.0099,-1.0127,-1.0122,-1.0131,-1.0138,-1.0122,-1.0173,-1.0162,-1.0138,-1.0103,-1.0162,-1.0185,-1.0194,-1.0071,-1.007,-1.0069,-1.0068,0,0,-1.0166,-1.0153,-1.0162,-1.0162,-1.0157,-1.0169,-1.0193,-1.0201,-1.021,-1.0213,-1.0232,-1.0252,-1.023,-1.0234,-1.0218,-1.0238,-1.0294,-1.0211,-1.0211,-1.0227,-1.035,-1.0368,-1.0379,-1.0279,-1.0281,-1.0282,-1.035,0,-1.0232,-1.027,-1.0249,-1.0291,-1.0306,-1.0273,-1.0294,-1.0293,-1.0284,-1.0297,-1.0287,-1.0302,-1.0272,-1.0274,-1.0292,-1.0283,-1.0318,-1.0278,-1.0298,-1.0299,-1.0299,-1.0391,-1.041,-1.0475,-1.0359,-1.036,-1.0361,0,-1.0314,-1.0319,-1.0362,-1.0354,-1.036,-1.0378,-1.0385,-1.0397,-1.0396,-1.0388,-1.0393,-1.0372,-1.0396,-1.036,-1.0393,-1.0366,-1.0373,-1.037,-1.0372,-1.0373,-1.0334,-1.0395,-1.0495,-1.0505,-1.0375,-1.0374,-1.0373,0,-1.0385,-1.0402,-1.043,-1.0432,-1.0423,-1.0437,-1.0434,-1.0431,-1.0438,-1.0444,-1.0448,-1.0457,-1.0462,-1.047,-1.0453,-1.0429,-1.0488,-1.0451,-1.0483,-1.0484,-1.0498,-1.0497,-1.06,-1.0502,-1.0501,-1.0501,-1.0501,0,-1.0461,-1.0489,-1.0462,-1.048,-1.051,-1.0486,-1.0517,-1.0511,-1.0509,-1.0525,-1.0498,-1.0514,-1.049,-1.0504,-1.0491,-1.052,-1.0523,-1.0518,-1.0514,-1.0521,-1.0521,-1.0525,-1.052,-1.0504,-1.0503,-1.0503,-1.0502,0,-1.0545,-1.0528,-1.0557,-1.0546,-1.0544,-1.0567,-1.0558,-1.0575,-1.0564,-1.0585,-1.0589,-1.0573,-1.0588,-1.0572,-1.0586,-1.0577,-1.0617,-1.0606,-1.0617,-1.0614,-1.0648,-1.0645,-1.0757,-1.0771,-1.0663,-1.0664,-1.0665,0,-1.0595,-1.0616,-1.0607,-1.0616,-1.0615,-1.0629,-1.0635,-1.0613,-1.0621,-1.0622,-1.0639,-1.0651,-1.066,-1.0686,-1.0677,-1.0688,-1.0677,-1.0716,-1.0679,-1.0685,-1.0679,-1.0678,-1.068,-1.0724,-1.0725,-1.0726,-1.0727,0,-1.0687,-1.0677,-1.0687,-1.0694,-1.0703,-1.0708,-1.0711,-1.072,-1.0697,-1.0707,-1.0722,-1.0729,-1.0744,-1.0757,-1.0765,-1.0763,-1.0742,-1.0739,-1.0747,-1.0754,-1.076,-1.0758,-1.0638,-1.0736,-1.0735,-1.0735,-1.0734,-1.0734,-1.0756,-1.0773,-1.0769,-1.0781,-1.0781,-1.0785,-1.0799,-1.0791,-1.0802,-1.0812,-1.0798,-1.0817,-1.0816,-1.0825,-1.0826,-1.0841,-1.0825,-1.0836,-1.0839,-1.0843,-1.0848,-1.0757,-1.0842,-1.0842,-1.0842,-1.0841,-1.0841,0,-1.0846,-1.0842,-1.0853,-1.0858,-1.0868,-1.0846,-1.0848,-1.0858,-1.0875,-1.0876,-1.0885,-1.0903,-1.0916,-1.0907,-1.0918,-1.0932,-1.0923,-1.0936,-1.0935,-1.0935,-1.0862,-1.0854,-1.0944,-1.0944,-1.0944,-1.0944,-1.0944,-1.0944,-1.0894,-1.0922,-1.0912,-1.094,-1.0936,-1.0953,-1.0957,-1.096,-1.0961,-1.0981,-1.0992,-1.0986,-1.0983,-1.0994,-1.1005,-1.1002,-1.1008,-1.1025,-1.1019,-1.0951,-1.094,-1.0931,-1.0923,-1.1027,-1.1027,-1.1092,-1.1092,-1.1093]},{"header":{"parameterUnit":"m.s-1","parameterCategory":1,"la1":30.2991,"la2":30.254,"lo1":-89.0895,"lo2":-89.0444,"dy":0.0017,"dx":0.0017,"nx":28,"ny":28,"refTime":"2023-04-25T21:00:00:Z","depth":0,"parameterNumber":3,"parameterNumberName":"V-component_of_WINDS"},"data":[0,0,0,0,0,0,0,0,0,0,0,0,0,0,0,0,0,0,0,0,0,0,0,0,0,0,0,0,0,0,0,0,0,0,0,0,0,0,0,0,0,0,0,0,0,0,0,0,0,0,0,0,0,0,0,0,0,0,1.2482,1.2482,0,1.2499,1.2499,1.2499,1.2507,1.2507,1.2507,1.2507,1.2523,1.2523,1.2524,0,0,0,0,0,0,0,0,0,0,0,0,0,1.2454,1.2455,1.2482,1.2482,1.2482,1.2499,1.2499,1.2499,1.2507,1.2507,1.2507,1.2507,1.2523,1.2523,1.2524,0,0,0,0,0,0,0,0,0,0,0,0,0,1.2468,1.2455,1.2482,1.2488,1.2489,1.2499,1.2499,1.2499,1.2507,1.2507,1.2507,1.2507,1.2522,1.2523,1.2524,1.2528,0,0,1.2526,1.2526,0,0,0,0,0,0,0,0,1.2467,1.2469,1.2487,1.2488,1.2489,1.2501,1.2495,1.2509,1.2507,1.25,1.2507,1.2507,1.2515,1.2517,1.252,1.2529,1.2529,1.2526,1.2526,1.2526,1.2527,0,0,0,0,0,0,0,1.2466,1.2469,1.2489,1.2487,1.2488,1.249,1.2492,1.2498,1.2508,1.2501,1.2501,1.2503,1.2516,1.2519,1.252,1.2529,1.2526,1.2526,1.2527,1.2527,1.2542,1.2542,0,0,0,0,0,0,1.2465,1.2468,1.2488,1.2489,1.2478,1.249,1.2492,1.2497,1.2508,1.2509,1.2503,1.2504,1.2518,1.2519,1.2521,1.2526,1.2526,1.2527,1.2527,1.2542,1.2542,1.2542,0,0,0,0,0,0,1.2464,1.2466,1.2487,1.2479,1.2481,1.2491,1.2496,1.2497,1.2501,1.251,1.2511,1.2505,1.2518,1.252,1.2526,1.2527,1.2527,1.2528,1.2542,1.2542,1.2542,1.2537,0,0,0,0,0,0,1.2463,1.2466,1.2468,1.2479,1.2482,1.2493,1.2496,1.2498,1.2502,1.2502,1.2512,1.2513,1.2518,1.2525,1.2527,1.2528,1.2528,1.2542,1.2542,1.2542,1.2537,1.2537,1.2537,0,0,0,0,0,1.2462,1.2466,1.2468,1.2471,1.2485,1.2493,1.2495,1.2501,1.2502,1.2504,1.2509,1.2513,1.2526,1.2526,1.2527,1.2529,1.2542,1.2542,1.2542,1.2537,1.2537,1.2537,0,0,0,0,0,0,1.2455,1.2467,1.247,1.2478,1.2484,1.2494,1.2497,1.2501,1.2507,1.2507,1.2514,1.2516,1.2521,1.2526,1.2524,1.2533,1.2534,1.2535,1.253,1.253,1.253,1.2528,1.2529,0,0,0,0,0,1.2454,1.2461,1.2471,1.2476,1.2479,1.2488,1.2491,1.2496,1.2503,1.2505,1.2511,1.2518,1.2523,1.2527,1.2532,1.2538,1.254,1.2539,1.2539,1.2539,1.2539,1.2542,1.2542,1.2542,1.2542,1.2542,0,0,1.2453,1.2461,1.2464,1.2475,1.2481,1.2486,1.249,1.2496,1.25,1.2506,1.2512,1.2517,1.2524,1.253,1.2533,1.2534,1.2539,1.2539,1.2539,1.2539,1.2542,1.2542,1.2542,1.2542,1.2542,1.2542,0,0,1.2453,1.246,1.2465,1.2471,1.2479,1.2485,1.2486,1.2495,1.2499,1.2505,1.251,1.2514,1.2524,1.2529,1.2533,1.2534,1.2538,1.2536,1.2535,1.2537,1.2537,1.2537,1.2538,1.2538,1.2536,1.2536,1.2536,0,1.245,1.246,1.2467,1.2473,1.2477,1.2483,1.2488,1.2493,1.2503,1.2506,1.2507,1.2519,1.2524,1.2531,1.2531,1.2534,1.2535,1.2535,1.2537,1.2537,1.2537,1.2537,1.2538,1.2536,1.2536,1.2536,1.2536,0,1.2456,1.2462,1.2465,1.2475,1.248,1.2485,1.2492,1.2496,1.25,1.2504,1.2511,1.2517,1.2524,1.2526,1.253,1.2533,1.2534,1.2536,1.2537,1.2537,1.2537,1.2537,1.2536,1.2536,1.2536,1.2536,0,0,1.2452,1.2466,1.2467,1.2471,1.2481,1.2486,1.2491,1.2498,1.2501,1.2508,1.2512,1.252,1.2521,1.2526,1.253,1.2532,1.2533,1.2534,1.2534,1.2533,1.2537,1.2535,1.2535,1.2535,1.2535,1.2535,1.2536,0,1.2454,1.2464,1.2471,1.2478,1.2484,1.2489,1.2494,1.25,1.2504,1.2509,1.2514,1.252,1.2522,1.2524,1.2527,1.2532,1.2533,1.2532,1.2538,1.2538,1.2536,1.2536,1.2534,1.2535,1.2536,1.2536,1.2536,0,1.2457,1.2464,1.2472,1.2481,1.2484,1.2488,1.2495,1.25,1.2506,1.2509,1.2514,1.2518,1.2523,1.2524,1.2531,1.253,1.2532,1.2535,1.2535,1.2536,1.2537,1.2536,1.2535,1.2536,1.2537,1.2537,1.2537,0,1.2454,1.2465,1.2471,1.2475,1.2485,1.2488,1.2492,1.2499,1.2503,1.2509,1.2511,1.2518,1.2521,1.2525,1.2531,1.2531,1.2537,1.2538,1.2539,1.2539,1.254,1.254,1.254,1.2542,1.2542,1.2542,1.2542,0,1.2455,1.246,1.247,1.2474,1.2479,1.2486,1.2491,1.2495,1.2501,1.2506,1.2511,1.2514,1.2521,1.2526,1.253,1.2535,1.2536,1.2538,1.2539,1.2538,1.2538,1.254,1.254,1.2542,1.2542,1.2542,1.2542,0,1.2453,1.2459,1.2467,1.2476,1.2478,1.2482,1.249,1.2493,1.2498,1.2503,1.2505,1.2512,1.2518,1.2524,1.2531,1.2534,1.2538,1.254,1.2536,1.2537,1.2537,1.2537,1.2538,1.2539,1.2541,1.2541,1.2541,0,1.2453,1.2457,1.2467,1.247,1.2475,1.248,1.2484,1.2491,1.2495,1.2502,1.2505,1.2511,1.2516,1.2525,1.253,1.2536,1.2537,1.2537,1.2538,1.2537,1.2537,1.2537,1.2537,1.2537,1.2537,1.2537,1.2537,0,1.2453,1.2456,1.2462,1.2469,1.2474,1.248,1.2485,1.2488,1.2495,1.2499,1.2505,1.2509,1.2517,1.2523,1.2529,1.2533,1.2536,1.2537,1.2537,1.2536,1.2534,1.2535,1.2535,1.2537,1.2537,1.2537,1.2537,1.2537,1.2452,1.2455,1.2463,1.2469,1.2474,1.2479,1.2483,1.2489,1.2494,1.2501,1.2504,1.251,1.2516,1.2525,1.2529,1.2533,1.2534,1.2535,1.2535,1.2535,1.2534,1.2533,1.2534,1.2534,1.2534,1.2534,1.2534,0,1.2452,1.2457,1.2463,1.2471,1.2476,1.2479,1.2485,1.2489,1.2494,1.25,1.2505,1.2511,1.2517,1.2523,1.2529,1.2531,1.2532,1.2532,1.2532,1.2533,1.2533,1.2532,1.2531,1.2531,1.2531,1.2531,1.2531,1.2531,1.2452,1.2459,1.2462,1.2471,1.2476,1.2482,1.2485,1.249,1.2495,1.2502,1.2507,1.2511,1.2516,1.2522,1.2527,1.2529,1.2531,1.253,1.2532,1.2532,1.2533,1.2533,1.2532,1.253,1.253,1.2531,1.2531,1.2531]}]]